Location: Kumla
(59.1265°N, 15.1401°E)
Time: 18:36:17
(UTC+01:00)

Vanguard 1 Rocket - Pass Details

Date: 11 December 2023
Orbit: 654 x 4218 km, 34.3° (Epoch: 21 February)

Event Time Altitude Azimuth Distance (km) Brightness Sun altitude
Rises 08:21:22 0° 264° (W) 7,546 11.7 -2.8°
Reaches altitude 10° 08:29:52 10° 248° (WSW) 5,762 11.3 -2.0°
Maximum altitude 08:37:43 16° 219° (SW) 4,437 11.0 -1.3°
Drops below altitude 10° 08:43:40 10° 187° (S) 4,149 11.4 -0.8°
Sets 08:48:05 0° 166° (SSE) 4,556 12.3 -0.4°
